Othello, WA

2:24 PM PDT on August 28, 2016 (GMT -0700)
Hanford

Weather History for KHMS - December, 2012

Change the Weather History Date:

Wednesday, December 12, 2012

  Actual Average Record
Temperature  
Mean Temperature 32 °F -  
Max Temperature 36 °F 40 °F 105 °F (2004)
Min Temperature 27 °F 28 °F 9 °F (2005)
Degree Days  
Heating Degree Days 34    
Moisture  
Dew Point 34 °F    
Average Humidity 97    
Maximum Humidity 100    
Minimum Humidity 92    
Precipitation  
Precipitation 0.00 in - - ()
Sea Level Pressure  
Sea Level Pressure 29.80 in    
Wind  
Wind Speed 6 mph (WSW)    
Max Wind Speed 9 mph    
Max Gust Speed -    
Visibility 6 miles    
Events Fog    
Averages and records for this station are not official NWS values.
T = Trace of Precipitation, MM = Missing Value Source: NWS Daily Summary

Daily Weather History Graph

Daily Weather History Graph

Search for Another Location

Airport or City:

Trip Planner

Search our weather history database for the weather conditions in past years. The results will help you decide how hot, cold, wet, or windy it might be!

Date:

Astronomy

Dec. 12, 2012 Rise Set
Actual Time 7:33 AM PST 4:11 PM PST
Civil Twilight 6:58 AM PST 4:45 PM PST
Nautical Twilight 6:20 AM PST 5:24 PM PST
Astronomical Twilight 5:43 AM PST 6:01 PM PST
Moon 6:42 AM PST (12/12) 3:54 PM PST (12/12)
Length of Visible Light 9h 47m
Length of Day
8h 37m
Waning Crescent, 0% of the Moon is Illuminated
Dec 12
Waning Crescent
Dec 13
New
Dec 19
First Quarter
Dec 28
Full
Jan 4
Last Quarter

Hourly Weather History & Observations

Time (PST) Temp. Windchill Dew Point Humidity Pressure Visibility Wind Dir Wind Speed Gust Speed Precip Events Conditions
12:50 AM 34.5 °F 27.3 °F 32.4 °F 92% 29.59 in 15.0 mi NW 9.2 mph - N/A   Overcast
1:50 AM 34.3 °F 27.7 °F 34.2 °F 99% 29.60 in 10.0 mi WNW 8.1 mph - N/A   Overcast
2:50 AM 34.7 °F 28.8 °F 34.5 °F 99% 29.61 in 12.0 mi WNW 6.9 mph - N/A   Overcast
3:50 AM 35.1 °F 31.0 °F 34.9 °F 99% 29.65 in 12.0 mi WNW 4.6 mph - N/A   Overcast
4:50 AM 34.3 °F - 34.2 °F 99% 29.65 in 8.0 mi SW 2.3 mph - N/A   Overcast
6:50 AM 31.3 °F 26.6 °F 31.3 °F 100% 29.70 in 3.0 mi SSE 4.6 mph - N/A   Overcast
7:50 AM 33.6 °F 30.6 °F 33.6 °F 100% 29.72 in 0.1 mi ESE 3.5 mph - N/A Fog Fog
8:50 AM 35.2 °F 32.4 °F 35.2 °F 100% 29.75 in 0.1 mi SE 3.5 mph - N/A Fog Fog
9:50 AM 36.0 °F 33.3 °F 36.0 °F 100% 29.78 in 0.2 mi East 3.5 mph - N/A Fog Fog
10:50 AM 36.5 °F - 35.4 °F 96% 29.80 in 3.0 mi ESE 2.3 mph - N/A   Overcast
11:50 AM 36.5 °F 33.9 °F 35.4 °F 96% 29.82 in 0.5 mi WNW 3.5 mph - N/A Fog Fog
12:50 PM 36.5 °F 32.7 °F 35.2 °F 95% 29.83 in 3.0 mi NW 4.6 mph - N/A   Overcast
1:50 PM 36.0 °F 32.1 °F 34.3 °F 94% 29.85 in 10.0 mi NW 4.6 mph - N/A   Overcast
2:50 PM 36.0 °F 32.1 °F 34.5 °F 94% 29.86 in 10.0 mi NNW 4.6 mph - N/A   Overcast
3:50 PM 35.1 °F 31.0 °F 34.3 °F 97% 29.89 in 3.0 mi West 4.6 mph - N/A   Mist
4:50 PM 34.5 °F 28.6 °F 34.0 °F 98% 29.92 in 6.0 mi WSW 6.9 mph - N/A   Overcast
5:50 PM 34.5 °F 28.6 °F 32.5 °F 92% 29.93 in 15.0 mi SSW 6.9 mph - N/A   Overcast
6:50 PM 34.7 °F 29.6 °F 32.5 °F 92% 29.94 in 15.0 mi SSW 5.8 mph - N/A   Overcast
10:50 PM 27.9 °F 22.6 °F 27.9 °F 100% 30.01 in 0.8 mi WSW 4.6 mph - N/A   Clear
11:50 PM 28.0 °F 24.2 °F 28.0 °F 100% 30.02 in 0.5 mi SW 3.5 mph - N/A Fog Light Freezing Fog